Time,TemperatureF,DewpointF,PressureIn,WindDirection,WindDirectionDegrees,WindSpeedMPH,WindSpeedGustMPH,Humidity,HourlyPrecipIn,Conditions,Clouds,dailyrainin,SolarRadiationWatts/m^2,SoftwareType,DateUTC
2013-06-10 00:01:00,68.0,58.6,30.18,SSW,205,2.0,4.0,72,0.00,,,0.00,0,Wunderground v.1.15,2013-06-10 04:01:00,
2013-06-10 00:03:00,67.9,58.9,30.18,SSW,205,2.0,4.0,73,0.00,,,0.00,0,Wunderground v.1.15,2013-06-10 04:03:00,
2013-06-10 00:05:00,67.9,58.9,30.18,SSW,205,2.0,4.0,73,0.00,,,0.00,0,Wunderground v.1.15,2013-06-10 04:05:00,
2013-06-10 00:06:00,67.9,58.9,30.18,North,355,2.0,4.0,73,0.00,,,0.00,0,Wunderground v.1.15,2013-06-10 04:06:00,
2013-06-10 00:12:00,67.9,58.5,30.18,North,360,1.0,4.0,72,0.00,,,0.00,0,Wunderground v.1.15,2013-06-10 04:12:00,
2013-06-10 00:13:00,67.9,58.9,30.18,SSW,213,1.0,4.0,73,0.00,,,0.00,0,Wunderground v.1.15,2013-06-10 04:13:00,
2013-06-10 00:19:00,68.1,58.3,30.18,SSW,211,2.0,4.0,71,0.00,,,0.00,0,Wunderground v.1.15,2013-06-10 04:19:00,
2013-06-10 00:25:00,68.2,58.4,30.17,ESE,114,2.0,4.0,71,0.00,,,0.00,0,Wunderground v.1.15,2013-06-10 04:25:00,
2013-06-10 00:30:00,68.3,58.1,30.18,SSW,211,2.0,4.0,70,0.00,,,0.00,0,Wunderground v.1.15,2013-06-10 04:30:00,
2013-06-10 00:36:00,68.0,58.2,30.18,SW,214,3.0,5.0,71,0.00,,,0.00,0,Wunderground v.1.15,2013-06-10 04:36:00,
2013-06-10 00:41:00,67.7,58.3,30.18,NE,35,2.0,4.0,72,0.00,,,0.00,0,Wunderground v.1.15,2013-06-10 04:41:00,
2013-06-10 00:47:00,67.6,58.2,30.18,WSW,237,1.0,4.0,72,0.00,,,0.00,0,Wunderground v.1.15,2013-06-10 04:47:00,
2013-06-10 00:53:00,67.5,58.2,30.17,NNE,12,1.0,4.0,72,0.00,,,0.00,0,Wunderground v.1.15,2013-06-10 04:53:00,
2013-06-10 00:59:00,67.6,58.2,30.17,NNE,12,1.0,4.0,72,0.00,,,0.00,0,Wunderground v.1.15,2013-06-10 04:59:00,
2013-06-10 01:04:00,67.6,58.2,30.17,SW,229,1.0,2.0,72,0.00,,,0.00,0,Wunderground v.1.15,2013-06-10 05:04:00,
2013-06-10 01:10:00,67.7,58.7,30.18,SSW,192,1.0,3.0,73,0.00,,,0.00,0,Wunderground v.1.15,2013-06-10 05:10:00,
2013-06-10 01:15:00,67.4,58.8,30.18,SSW,194,2.0,5.0,74,0.00,,,0.00,0,Wunderground v.1.15,2013-06-10 05:15:00,
2013-06-10 01:21:00,66.9,59.1,30.18,SSW,209,3.0,5.0,76,0.00,,,0.00,0,Wunderground v.1.15,2013-06-10 05:21:00,
2013-06-10 01:27:00,66.7,59.3,30.17,NW,325,3.0,5.0,77,0.00,,,0.00,0,Wunderground v.1.15,2013-06-10 05:27:00,
2013-06-10 01:33:00,66.7,58.9,30.18,NW,315,1.0,4.0,76,0.00,,,0.00,0,Wunderground v.1.15,2013-06-10 05:33:00,
2013-06-10 01:39:00,66.7,58.9,30.17,NW,305,1.0,4.0,76,0.00,,,0.00,0,Wunderground v.1.15,2013-06-10 05:39:00,
2013-06-10 01:45:00,66.8,58.6,30.17,NNE,15,1.0,2.0,75,0.00,,,0.00,0,Wunderground v.1.15,2013-06-10 05:45:00,
2013-06-10 01:50:00,67.0,58.8,30.17,NE,40,1.0,2.0,75,0.00,,,0.00,0,Wunderground v.1.15,2013-06-10 05:50:00,
2013-06-10 01:55:00,67.1,58.9,30.17,South,190,1.0,2.0,75,0.00,,,0.00,0,Wunderground v.1.15,2013-06-10 05:55:00,
2013-06-10 02:00:00,67.1,58.9,30.16,SSW,198,2.0,2.0,75,0.00,,,0.00,0,Wunderground v.1.15,2013-06-10 06:00:00,
2013-06-10 02:06:00,67.1,58.9,30.16,SSW,194,2.0,4.0,75,0.00,,,0.00,0,Wunderground v.1.15,2013-06-10 06:06:00,
2013-06-10 02:11:00,67.0,58.8,30.16,SSW,209,2.0,2.0,75,0.00,,,0.00,0,Wunderground v.1.15,2013-06-10 06:11:00,
2013-06-10 02:33:00,66.6,58.8,30.15,SW,220,2.0,4.0,76,0.00,,,0.00,0,Wunderground v.1.15,2013-06-10 06:33:00,
2013-06-10 02:39:00,66.5,58.7,30.15,NW,304,2.0,4.0,76,0.00,,,0.00,0,Wunderground v.1.15,2013-06-10 06:39:00,
2013-06-10 02:45:00,66.5,58.7,30.15,SW,227,2.0,3.0,76,0.00,,,0.00,0,Wunderground v.1.15,2013-06-10 06:45:00,
2013-06-10 02:51:00,66.5,58.7,30.15,NNW,332,2.0,2.0,76,0.00,,,0.00,0,Wunderground v.1.15,2013-06-10 06:51:00,
2013-06-10 02:57:00,66.6,58.8,30.15,SW,228,2.0,2.0,76,0.00,,,0.00,0,Wunderground v.1.15,2013-06-10 06:57:00,
2013-06-10 03:03:00,66.7,58.9,30.15,SSW,202,2.0,4.0,76,0.00,,,0.00,0,Wunderground v.1.15,2013-06-10 07:03:00,
2013-06-10 03:09:00,66.6,59.2,30.15,SSW,198,2.0,4.0,77,0.00,,,0.00,0,Wunderground v.1.15,2013-06-10 07:09:00,
2013-06-10 03:14:00,66.5,59.1,30.15,West,277,2.0,5.0,77,0.00,,,0.00,0,Wunderground v.1.15,2013-06-10 07:14:00,
2013-06-10 03:20:00,66.4,59.0,30.14,WSW,240,2.0,2.0,77,0.00,,,0.00,0,Wunderground v.1.15,2013-06-10 07:20:00,
2013-06-10 03:26:00,66.4,59.0,30.14,SSW,210,2.0,5.0,77,0.00,,,0.00,0,Wunderground v.1.15,2013-06-10 07:26:00,
2013-06-10 03:32:00,66.4,59.0,30.14,SSW,209,2.0,4.0,77,0.00,,,0.00,0,Wunderground v.1.15,2013-06-10 07:32:00,
2013-06-10 03:37:00,66.4,59.0,30.14,ENE,74,1.0,4.0,77,0.00,,,0.00,0,Wunderground v.1.15,2013-06-10 07:37:00,
2013-06-10 03:43:00,66.3,59.2,30.14,SSW,194,1.0,4.0,78,0.00,,,0.00,0,Wunderground v.1.15,2013-06-10 07:43:00,
2013-06-10 03:49:00,66.0,58.9,30.14,SSW,207,2.0,4.0,78,0.00,,,0.00,0,Wunderground v.1.15,2013-06-10 07:49:00,
2013-06-10 03:54:00,65.9,59.2,30.14,NNE,24,2.0,4.0,79,0.00,,,0.00,0,Wunderground v.1.15,2013-06-10 07:54:00,
2013-06-10 04:00:00,65.9,59.2,30.14,NW,315,1.0,3.0,79,0.00,,,0.00,0,Wunderground v.1.15,2013-06-10 08:00:00,
2013-06-10 04:06:00,66.1,59.7,30.14,North,355,1.0,3.0,80,0.00,,,0.00,0,Wunderground v.1.15,2013-06-10 08:06:00,
2013-06-10 04:12:00,66.4,59.7,30.14,SSW,209,1.0,5.0,79,0.00,,,0.00,0,Wunderground v.1.15,2013-06-10 08:12:00,
2013-06-10 04:18:00,66.7,60.0,30.14,SSW,196,2.0,5.0,79,0.00,,,0.00,0,Wunderground v.1.15,2013-06-10 08:18:00,
2013-06-10 04:24:00,66.9,60.2,30.14,South,191,2.0,4.0,79,0.00,,,0.00,0,Wunderground v.1.15,2013-06-10 08:24:00,
2013-06-10 04:30:00,67.1,60.4,30.14,SSW,209,2.0,4.0,79,0.00,,,0.00,0,Wunderground v.1.15,2013-06-10 08:30:00,
2013-06-10 04:36:00,67.1,60.0,30.14,SSW,192,2.0,4.0,78,0.00,,,0.00,0,Wunderground v.1.15,2013-06-10 08:36:00,
2013-06-10 04:42:00,67.0,60.3,30.14,WSW,242,2.0,3.0,79,0.00,,,0.00,0,Wunderground v.1.15,2013-06-10 08:42:00,
2013-06-10 04:47:00,67.1,60.4,30.13,ENE,72,2.0,3.0,79,0.00,,,0.00,0,Wunderground v.1.15,2013-06-10 08:47:00,
2013-06-10 04:53:00,67.1,60.4,30.13,SW,215,2.0,5.0,79,0.00,,,0.00,0,Wunderground v.1.15,2013-06-10 08:53:00,
2013-06-10 04:58:00,67.2,60.5,30.13,SSW,192,2.0,5.0,79,0.00,,,0.00,0,Wunderground v.1.15,2013-06-10 08:58:00,
2013-06-10 05:04:00,67.2,60.5,30.13,SW,222,2.0,4.0,79,0.00,,,0.00,0,Wunderground v.1.15,2013-06-10 09:04:00,
2013-06-10 05:10:00,67.8,61.0,30.13,SSE,161,3.0,3.0,79,0.00,,,0.00,0,Wunderground v.1.15,2013-06-10 09:10:00,
2013-06-10 05:16:00,67.9,60.8,30.13,SSW,208,2.0,4.0,78,0.00,,,0.00,0,Wunderground v.1.15,2013-06-10 09:16:00,
2013-06-10 05:22:00,67.9,61.1,30.13,SW,218,2.0,4.0,79,0.00,,,0.00,0,Wunderground v.1.15,2013-06-10 09:22:00,
2013-06-10 05:28:00,67.7,61.3,30.13,SSW,194,2.0,4.0,80,0.00,,,0.00,0,Wunderground v.1.15,2013-06-10 09:28:00,
2013-06-10 05:33:00,67.4,61.4,30.13,SW,214,2.0,4.0,81,0.00,,,0.01,0,Wunderground v.1.15,2013-06-10 09:33:00,
2013-06-10 05:40:00,66.9,61.2,30.13,South,186,2.0,4.0,82,0.00,,,0.01,0,Wunderground v.1.15,2013-06-10 09:40:00,
2013-06-10 05:45:00,66.4,61.4,30.13,WNW,300,2.0,6.0,84,0.06,,,0.02,0,Wunderground v.1.15,2013-06-10 09:45:00,
2013-06-10 05:51:00,66.0,61.4,30.12,NNE,22,2.0,4.0,85,0.06,,,0.02,0,Wunderground v.1.15,2013-06-10 09:51:00,
2013-06-10 05:56:00,65.8,61.5,30.12,NNE,15,2.0,4.0,86,0.04,,,0.02,0,Wunderground v.1.15,2013-06-10 09:56:00,
2013-06-10 06:01:00,65.6,61.0,30.12,SSW,193,2.0,7.0,85,0.00,,,0.02,5,Wunderground v.1.15,2013-06-10 10:01:00,
2013-06-10 06:07:00,65.6,61.0,30.13,SSW,198,3.0,7.0,85,0.00,,,0.03,7,Wunderground v.1.15,2013-06-10 10:07:00,
2013-06-10 06:12:00,65.5,60.9,30.13,SW,216,3.0,4.0,85,0.00,,,0.03,7,Wunderground v.1.15,2013-06-10 10:12:00,
2013-06-10 06:18:00,65.7,59.7,30.13,SSW,194,4.0,7.0,81,0.00,,,0.03,12,Wunderground v.1.15,2013-06-10 10:18:00,
2013-06-10 06:23:00,65.8,60.2,30.13,West,276,5.0,6.0,82,0.00,,,0.03,18,Wunderground v.1.15,2013-06-10 10:23:00,
2013-06-10 06:29:00,65.6,60.3,30.13,SSW,204,4.0,7.0,83,0.00,,,0.03,21,Wunderground v.1.15,2013-06-10 10:29:00,
2013-06-10 06:34:00,65.3,60.7,30.13,SW,216,3.0,5.0,85,0.00,,,0.03,21,Wunderground v.1.15,2013-06-10 10:34:00,
2013-06-10 06:39:00,65.2,60.6,30.13,SW,225,2.0,5.0,85,0.00,,,0.03,23,Wunderground v.1.15,2013-06-10 10:39:00,
2013-06-10 06:45:00,65.0,60.4,30.12,WSW,254,3.0,7.0,85,0.00,,,0.03,23,Wunderground v.1.15,2013-06-10 10:45:00,
2013-06-10 06:50:00,64.9,60.3,30.12,SSW,203,3.0,3.0,85,0.00,,,0.03,26,Wunderground v.1.15,2013-06-10 10:50:00,
2013-06-10 06:56:00,64.7,60.4,30.12,SW,223,3.0,5.0,86,0.00,,,0.04,30,Wunderground v.1.15,2013-06-10 10:56:00,
2013-06-10 07:02:00,64.7,60.7,30.12,SSW,210,3.0,5.0,87,0.00,,,0.04,32,Wunderground v.1.15,2013-06-10 11:02:00,
2013-06-10 07:08:00,64.6,60.6,30.12,SW,214,3.0,5.0,87,0.00,,,0.04,35,Wunderground v.1.15,2013-06-10 11:08:00,
2013-06-10 07:13:00,64.5,60.9,30.12,SW,224,3.0,5.0,88,0.00,,,0.04,39,Wunderground v.1.15,2013-06-10 11:13:00,
2013-06-10 07:19:00,64.4,61.1,30.11,NNE,18,2.0,5.0,89,0.00,,,0.05,44,Wunderground v.1.15,2013-06-10 11:19:00,
2013-06-10 07:25:00,64.4,61.1,30.11,NNW,338,2.0,5.0,89,0.00,,,0.05,46,Wunderground v.1.15,2013-06-10 11:25:00,
2013-06-10 07:30:00,64.4,61.1,30.12,North,9,2.0,2.0,89,0.00,,,0.05,42,Wunderground v.1.15,2013-06-10 11:30:00,
2013-06-10 07:36:00,64.5,61.2,30.11,WNW,299,2.0,5.0,89,0.00,,,0.05,37,Wunderground v.1.15,2013-06-10 11:36:00,
2013-06-10 07:42:00,64.5,60.9,30.12,NW,304,1.0,5.0,88,0.00,,,0.05,30,Wunderground v.1.15,2013-06-10 11:42:00,
2013-06-10 07:48:00,64.5,61.2,30.12,North,360,1.0,5.0,89,0.00,,,0.05,33,Wunderground v.1.15,2013-06-10 11:48:00,
2013-06-10 07:54:00,64.5,61.2,30.12,North,9,1.0,5.0,89,0.00,,,0.05,35,Wunderground v.1.15,2013-06-10 11:54:00,
2013-06-10 08:00:00,64.6,61.0,30.11,West,267,2.0,7.0,88,0.00,,,0.05,46,Wunderground v.1.15,2013-06-10 12:00:00,
2013-06-10 08:06:00,64.5,60.9,30.12,SW,235,3.0,7.0,88,0.00,,,0.05,35,Wunderground v.1.15,2013-06-10 12:06:00,
2013-06-10 08:12:00,64.5,61.2,30.12,North,351,2.0,7.0,89,0.00,,,0.05,40,Wunderground v.1.15,2013-06-10 12:12:00,
2013-06-10 08:18:00,64.3,61.3,30.11,NE,39,2.0,7.0,90,0.00,,,0.06,76,Wunderground v.1.15,2013-06-10 12:18:00,
2013-06-10 08:24:00,64.3,61.6,30.11,North,355,2.0,7.0,91,0.00,,,0.06,113,Wunderground v.1.15,2013-06-10 12:24:00,
2013-06-10 08:30:00,64.3,61.6,30.11,NNW,335,1.0,7.0,91,0.00,,,0.06,132,Wunderground v.1.15,2013-06-10 12:30:00,
2013-06-10 08:35:00,64.5,61.8,30.11,NNE,31,1.0,7.0,91,0.00,,,0.06,151,Wunderground v.1.15,2013-06-10 12:35:00,
2013-06-10 08:41:00,64.6,61.3,30.11,SW,216,2.0,7.0,89,0.00,,,0.06,127,Wunderground v.1.15,2013-06-10 12:41:00,
2013-06-10 08:47:00,64.7,61.7,30.11,SSW,205,3.0,7.0,90,0.00,,,0.06,97,Wunderground v.1.15,2013-06-10 12:47:00,
2013-06-10 08:52:00,64.5,61.5,30.10,SSW,200,3.0,7.0,90,0.00,,,0.06,86,Wunderground v.1.15,2013-06-10 12:52:00,
2013-06-10 08:58:00,64.4,61.7,30.10,SSW,209,2.0,7.0,91,0.00,,,0.07,98,Wunderground v.1.15,2013-06-10 12:58:00,
2013-06-10 09:04:00,64.3,61.9,30.10,SW,225,3.0,4.0,92,0.00,,,0.07,130,Wunderground v.1.15,2013-06-10 13:04:00,
2013-06-10 09:10:00,64.3,62.2,30.10,South,187,3.0,4.0,93,0.05,,,0.08,69,Wunderground v.1.15,2013-06-10 13:10:00,
2013-06-10 09:15:00,64.3,62.2,30.09,SW,227,3.0,4.0,93,0.05,,,0.08,128,Wunderground v.1.15,2013-06-10 13:15:00,
2013-06-10 09:21:00,64.3,62.2,30.09,SW,236,3.0,7.0,93,0.05,,,0.08,218,Wunderground v.1.15,2013-06-10 13:21:00,
2013-06-10 09:26:00,64.3,62.2,30.09,SSW,197,4.0,7.0,93,0.00,,,0.08,176,Wunderground v.1.15,2013-06-10 13:26:00,
2013-06-10 09:33:00,64.4,62.3,30.09,NNW,331,4.0,5.0,93,0.00,,,0.09,125,Wunderground v.1.15,2013-06-10 13:33:00,
2013-06-10 09:38:00,64.4,62.3,30.09,South,186,3.0,5.0,93,0.00,,,0.09,142,Wunderground v.1.15,2013-06-10 13:38:00,
2013-06-10 09:44:00,64.4,62.0,30.09,SSW,206,3.0,7.0,92,0.00,,,0.09,156,Wunderground v.1.15,2013-06-10 13:44:00,
2013-06-10 09:50:00,64.5,62.4,30.09,North,5,3.0,3.0,93,0.00,,,0.09,165,Wunderground v.1.15,2013-06-10 13:50:00,
2013-06-10 09:56:00,64.7,62.6,30.09,WSW,243,2.0,4.0,93,0.00,,,0.09,149,Wunderground v.1.15,2013-06-10 13:56:00,
2013-06-10 10:02:00,64.7,62.6,30.09,North,11,2.0,7.0,93,0.00,,,0.09,171,Wunderground v.1.15,2013-06-10 14:02:00,
2013-06-10 10:08:00,64.6,62.2,30.09,SSW,192,2.0,7.0,92,0.00,,,0.09,211,Wunderground v.1.15,2013-06-10 14:08:00,
2013-06-10 10:13:00,64.3,61.6,30.08,SSW,206,4.0,7.0,91,0.00,,,0.09,121,Wunderground v.1.15,2013-06-10 14:13:00,
2013-06-10 10:19:00,64.2,61.8,30.08,WSW,258,4.0,7.0,92,0.00,,,0.10,69,Wunderground v.1.15,2013-06-10 14:19:00,
2013-06-10 10:25:00,64.1,61.7,30.08,SSW,198,3.0,7.0,92,0.00,,,0.10,97,Wunderground v.1.15,2013-06-10 14:25:00,
2013-06-10 10:31:00,64.0,61.6,30.08,SSW,206,3.0,7.0,92,0.08,,,0.11,70,Wunderground v.1.15,2013-06-10 14:31:00,
2013-06-10 10:37:00,63.9,61.8,30.08,SSW,206,3.0,7.0,93,0.09,,,0.12,62,Wunderground v.1.15,2013-06-10 14:37:00,
2013-06-10 10:43:00,63.8,61.7,30.08,SSW,213,3.0,7.0,93,0.06,,,0.13,91,Wunderground v.1.15,2013-06-10 14:43:00,
2013-06-10 10:48:00,63.7,61.6,30.07,SW,219,4.0,7.0,93,0.06,,,0.13,111,Wunderground v.1.15,2013-06-10 14:48:00,
2013-06-10 10:54:00,63.8,61.7,30.07,SSW,194,3.0,7.0,93,0.05,,,0.14,123,Wunderground v.1.15,2013-06-10 14:54:00,
2013-06-10 10:59:00,63.9,62.1,30.07,SSW,204,3.0,9.0,94,0.05,,,0.14,105,Wunderground v.1.15,2013-06-10 14:59:00,
2013-06-10 11:05:00,64.1,62.3,30.07,SSW,204,3.0,7.0,94,0.05,,,0.14,135,Wunderground v.1.15,2013-06-10 15:05:00,
2013-06-10 11:10:00,64.2,62.4,30.07,SSW,212,3.0,7.0,94,0.04,,,0.14,213,Wunderground v.1.15,2013-06-10 15:10:00,
2013-06-10 11:16:00,64.4,62.6,30.07,SSW,202,3.0,8.0,94,0.00,,,0.14,287,Wunderground v.1.15,2013-06-10 15:16:00,
2013-06-10 11:22:00,64.7,62.9,30.06,SW,233,3.0,7.0,94,0.00,,,0.14,313,Wunderground v.1.15,2013-06-10 15:22:00,
2013-06-10 11:27:00,65.0,63.2,30.06,South,191,3.0,7.0,94,0.00,,,0.14,320,Wunderground v.1.15,2013-06-10 15:27:00,
2013-06-10 11:33:00,65.4,63.6,30.06,WSW,246,3.0,7.0,94,0.00,,,0.14,292,Wunderground v.1.15,2013-06-10 15:33:00,
2013-06-10 11:39:00,65.7,63.6,30.06,WSW,246,2.0,7.0,93,0.00,,,0.14,285,Wunderground v.1.15,2013-06-10 15:39:00,
2013-06-10 11:44:00,65.8,63.7,30.05,SW,220,3.0,7.0,93,0.00,,,0.14,281,Wunderground v.1.15,2013-06-10 15:44:00,
2013-06-10 11:50:00,65.9,63.8,30.05,North,5,4.0,4.0,93,0.00,,,0.14,188,Wunderground v.1.15,2013-06-10 15:50:00,
2013-06-10 11:56:00,65.9,63.8,30.05,South,170,3.0,7.0,93,0.00,,,0.14,169,Wunderground v.1.15,2013-06-10 15:56:00,
2013-06-10 12:02:00,65.9,63.8,30.05,SW,220,4.0,7.0,93,0.00,,,0.15,190,Wunderground v.1.15,2013-06-10 16:02:00,
2013-06-10 12:08:00,66.0,64.2,30.04,SSW,209,3.0,7.0,94,0.00,,,0.15,246,Wunderground v.1.15,2013-06-10 16:08:00,
2013-06-10 12:14:00,66.1,64.0,30.04,SSW,213,4.0,10.0,93,0.05,,,0.16,264,Wunderground v.1.15,2013-06-10 16:14:00,
2013-06-10 12:20:00,66.2,64.1,30.04,South,180,6.0,6.0,93,0.05,,,0.16,218,Wunderground v.1.15,2013-06-10 16:20:00,
2013-06-10 12:25:00,66.3,64.2,30.04,SW,218,5.0,7.0,93,0.04,,,0.16,216,Wunderground v.1.15,2013-06-10 16:25:00,
2013-06-10 12:31:00,66.5,64.4,30.04,SW,215,6.0,7.0,93,0.00,,,0.16,218,Wunderground v.1.15,2013-06-10 16:31:00,
2013-06-10 12:37:00,66.5,64.4,30.03,SSW,205,6.0,9.0,93,0.00,,,0.16,176,Wunderground v.1.15,2013-06-10 16:37:00,
2013-06-10 12:42:00,66.6,64.5,30.03,SW,217,6.0,7.0,93,0.00,,,0.16,116,Wunderground v.1.15,2013-06-10 16:42:00,
2013-06-10 12:48:00,66.6,64.8,30.03,SSW,209,5.0,9.0,94,0.00,,,0.16,163,Wunderground v.1.15,2013-06-10 16:48:00,
2013-06-10 12:54:00,66.6,64.8,30.02,South,180,5.0,7.0,94,0.00,,,0.17,232,Wunderground v.1.15,2013-06-10 16:54:00,
2013-06-10 12:59:00,66.7,64.6,30.02,South,188,5.0,7.0,93,0.00,,,0.17,336,Wunderground v.1.15,2013-06-10 16:59:00,
2013-06-10 13:05:00,66.9,64.8,30.01,SSW,193,6.0,13.0,93,0.00,,,0.17,221,Wunderground v.1.15,2013-06-10 17:05:00,
2013-06-10 13:10:00,66.9,64.8,30.02,SSW,196,6.0,6.0,93,0.00,,,0.17,111,Wunderground v.1.15,2013-06-10 17:10:00,
2013-06-10 13:15:00,66.9,64.8,30.01,SSW,201,6.0,9.0,93,0.00,,,0.18,199,Wunderground v.1.15,2013-06-10 17:15:00,
2013-06-10 13:21:00,67.0,64.9,30.01,South,175,7.0,9.0,93,0.00,,,0.18,211,Wunderground v.1.15,2013-06-10 17:21:00,
2013-06-10 13:27:00,67.2,65.1,30.01,SSW,213,6.0,9.0,93,0.00,,,0.18,209,Wunderground v.1.15,2013-06-10 17:27:00,
2013-06-10 13:33:00,67.2,64.8,30.00,SSW,200,7.0,9.0,92,0.00,,,0.18,169,Wunderground v.1.15,2013-06-10 17:33:00,
2013-06-10 13:39:00,67.1,65.0,30.00,SSW,203,7.0,9.0,93,0.00,,,0.19,125,Wunderground v.1.15,2013-06-10 17:39:00,
2013-06-10 13:45:00,67.1,65.0,30.00,SSW,202,5.0,9.0,93,0.07,,,0.20,163,Wunderground v.1.15,2013-06-10 17:45:00,
2013-06-10 13:51:00,67.1,65.0,30.00,SSW,211,5.0,9.0,93,0.06,,,0.20,134,Wunderground v.1.15,2013-06-10 17:51:00,
2013-06-10 13:57:00,67.2,65.1,30.00,SSW,200,6.0,9.0,93,0.05,,,0.21,199,Wunderground v.1.15,2013-06-10 17:57:00,
2013-06-10 14:03:00,67.2,64.8,29.99,SSW,210,6.0,13.0,92,0.05,,,0.21,155,Wunderground v.1.15,2013-06-10 18:03:00,
2013-06-10 14:08:00,67.2,65.1,29.99,SW,227,7.0,13.0,93,0.05,,,0.22,197,Wunderground v.1.15,2013-06-10 18:08:00,
2013-06-10 14:13:00,67.3,64.9,29.98,SSW,198,7.0,9.0,92,0.05,,,0.22,200,Wunderground v.1.15,2013-06-10 18:13:00,
2013-06-10 14:19:00,67.4,65.0,29.98,SSW,209,8.0,15.0,92,0.04,,,0.22,188,Wunderground v.1.15,2013-06-10 18:19:00,
2013-06-10 14:25:00,67.5,65.4,29.98,South,190,8.0,10.0,93,0.00,,,0.22,209,Wunderground v.1.15,2013-06-10 18:25:00,
2013-06-10 14:31:00,67.6,65.5,29.97,South,191,6.0,8.0,93,0.00,,,0.23,202,Wunderground v.1.15,2013-06-10 18:31:00,
2013-06-10 14:37:00,67.7,65.6,29.97,SSW,208,5.0,8.0,93,0.00,,,0.23,199,Wunderground v.1.15,2013-06-10 18:37:00,
2013-06-10 14:43:00,67.8,65.7,29.97,South,189,6.0,8.0,93,0.00,,,0.23,179,Wunderground v.1.15,2013-06-10 18:43:00,
2013-06-10 14:49:00,67.9,65.8,29.97,South,175,5.0,8.0,93,0.00,,,0.23,192,Wunderground v.1.15,2013-06-10 18:49:00,
2013-06-10 14:55:00,67.9,65.8,29.96,SSW,201,5.0,8.0,93,0.00,,,0.23,142,Wunderground v.1.15,2013-06-10 18:55:00,
2013-06-10 15:00:00,68.0,65.6,29.96,SSW,202,6.0,14.0,92,0.00,,,0.23,148,Wunderground v.1.15,2013-06-10 19:00:00,
2013-06-10 15:06:00,68.2,65.8,29.96,SSW,196,7.0,14.0,92,0.00,,,0.23,95,Wunderground v.1.15,2013-06-10 19:06:00,
2013-06-10 15:12:00,68.1,65.7,29.95,SSW,198,6.0,14.0,92,0.00,,,0.24,113,Wunderground v.1.15,2013-06-10 19:12:00,
2013-06-10 15:18:00,68.1,66.0,29.94,SSE,165,5.0,14.0,93,0.00,,,0.24,156,Wunderground v.1.15,2013-06-10 19:18:00,
2013-06-10 15:23:00,68.0,65.9,29.94,SSW,213,5.0,14.0,93,0.16,,,0.26,142,Wunderground v.1.15,2013-06-10 19:23:00,
2013-06-10 15:29:00,68.0,65.9,29.94,SSW,192,5.0,14.0,93,0.15,,,0.27,192,Wunderground v.1.15,2013-06-10 19:29:00,
2013-06-10 15:34:00,67.9,65.8,29.93,SSW,205,6.0,14.0,93,0.07,,,0.27,163,Wunderground v.1.15,2013-06-10 19:34:00,
2013-06-10 15:40:00,67.9,65.8,29.93,SW,215,7.0,7.0,93,0.06,,,0.28,113,Wunderground v.1.15,2013-06-10 19:40:00,
2013-06-10 15:45:00,67.8,65.7,29.93,South,190,6.0,14.0,93,0.29,,,0.30,98,Wunderground v.1.15,2013-06-10 19:45:00,
2013-06-10 15:51:00,67.8,65.7,29.93,SW,220,5.0,14.0,93,0.29,,,0.32,107,Wunderground v.1.15,2013-06-10 19:51:00,
2013-06-10 15:56:00,67.8,65.7,29.93,South,175,5.0,14.0,93,0.58,,,0.36,83,Wunderground v.1.15,2013-06-10 19:56:00,
2013-06-10 16:02:00,67.7,65.6,29.92,South,178,7.0,11.0,93,0.31,,,0.39,113,Wunderground v.1.15,2013-06-10 20:02:00,
2013-06-10 16:07:00,67.6,65.5,29.92,SSW,209,7.0,11.0,93,0.23,,,0.41,105,Wunderground v.1.15,2013-06-10 20:07:00,
2013-06-10 16:13:00,67.7,65.9,29.92,SSW,198,7.0,11.0,94,0.17,,,0.43,84,Wunderground v.1.15,2013-06-10 20:13:00,
2013-06-10 16:19:00,67.7,65.9,29.92,South,190,6.0,11.0,94,0.08,,,0.43,88,Wunderground v.1.15,2013-06-10 20:19:00,
2013-06-10 16:24:00,67.7,65.9,29.92,SW,216,5.0,11.0,94,0.06,,,0.44,77,Wunderground v.1.15,2013-06-10 20:24:00,
2013-06-10 16:30:00,67.8,65.7,29.92,SSW,202,6.0,6.0,93,0.06,,,0.44,84,Wunderground v.1.15,2013-06-10 20:30:00,
2013-06-10 16:36:00,67.8,66.0,29.91,SE,145,5.0,11.0,94,0.04,,,0.44,74,Wunderground v.1.15,2013-06-10 20:36:00,
2013-06-10 16:42:00,68.0,65.9,29.91,SSW,211,5.0,11.0,93,0.00,,,0.44,149,Wunderground v.1.15,2013-06-10 20:42:00,
2013-06-10 16:47:00,68.1,66.0,29.91,SW,218,6.0,11.0,93,0.00,,,0.44,148,Wunderground v.1.15,2013-06-10 20:47:00,
2013-06-10 16:53:00,68.3,65.9,29.91,SSW,196,8.0,11.0,92,0.00,,,0.44,153,Wunderground v.1.15,2013-06-10 20:53:00,
2013-06-10 16:58:00,68.5,66.1,29.91,South,182,7.0,11.0,92,0.00,,,0.44,202,Wunderground v.1.15,2013-06-10 20:58:00,
2013-06-10 17:04:00,68.5,66.1,29.90,SSW,205,6.0,9.0,92,0.00,,,0.44,90,Wunderground v.1.15,2013-06-10 21:04:00,
2013-06-10 17:09:00,68.4,66.0,29.91,SSW,213,6.0,11.0,92,0.00,,,0.44,49,Wunderground v.1.15,2013-06-10 21:09:00,
2013-06-10 17:15:00,68.3,65.6,29.90,South,191,7.0,9.0,91,0.00,,,0.44,118,Wunderground v.1.15,2013-06-10 21:15:00,
2013-06-10 17:20:00,68.3,65.9,29.90,South,175,7.0,9.0,92,0.00,,,0.44,83,Wunderground v.1.15,2013-06-10 21:20:00,
2013-06-10 17:26:00,68.4,65.7,29.90,SW,227,6.0,9.0,91,0.00,,,0.44,163,Wunderground v.1.15,2013-06-10 21:26:00,
2013-06-10 17:31:00,68.5,65.8,29.89,South,178,6.0,9.0,91,0.00,,,0.44,153,Wunderground v.1.15,2013-06-10 21:31:00,
2013-06-10 17:37:00,68.7,66.0,29.89,SSW,213,6.0,9.0,91,0.00,,,0.44,202,Wunderground v.1.15,2013-06-10 21:37:00,
2013-06-10 17:43:00,68.9,65.8,29.89,SW,227,6.0,9.0,90,0.00,,,0.44,209,Wunderground v.1.15,2013-06-10 21:43:00,
2013-06-10 17:49:00,69.0,65.9,29.89,SW,221,6.0,9.0,90,0.00,,,0.44,125,Wunderground v.1.15,2013-06-10 21:49:00,
2013-06-10 17:55:00,68.9,66.2,29.89,South,170,4.0,9.0,91,0.00,,,0.44,69,Wunderground v.1.15,2013-06-10 21:55:00,
2013-06-10 18:00:00,68.9,66.2,29.89,SW,217,4.0,5.0,91,0.00,,,0.44,26,Wunderground v.1.15,2013-06-10 22:00:00,
2013-06-10 18:06:00,68.6,65.9,29.89,SW,232,4.0,6.0,91,0.14,,,0.46,23,Wunderground v.1.15,2013-06-10 22:06:00,
2013-06-10 18:12:00,68.4,66.0,29.89,SSW,193,3.0,7.0,92,0.08,,,0.46,33,Wunderground v.1.15,2013-06-10 22:12:00,
2013-06-10 18:18:00,68.4,65.7,29.89,South,187,4.0,7.0,91,0.04,,,0.46,35,Wunderground v.1.15,2013-06-10 22:18:00,
2013-06-10 18:24:00,68.5,65.8,29.88,WNW,287,5.0,6.0,91,0.00,,,0.46,44,Wunderground v.1.15,2013-06-10 22:24:00,
2013-06-10 18:30:00,68.5,65.8,29.88,NNW,339,4.0,5.0,91,0.00,,,0.46,47,Wunderground v.1.15,2013-06-10 22:30:00,
2013-06-10 18:36:00,68.5,65.8,29.88,SSW,193,3.0,5.0,91,0.00,,,0.46,37,Wunderground v.1.15,2013-06-10 22:36:00,
2013-06-10 18:42:00,68.5,65.8,29.88,SSW,213,3.0,5.0,91,0.00,,,0.46,76,Wunderground v.1.15,2013-06-10 22:42:00,
2013-06-10 18:48:00,68.5,65.8,29.87,South,184,3.0,5.0,91,0.00,,,0.46,19,Wunderground v.1.15,2013-06-10 22:48:00,
2013-06-10 18:53:00,68.4,65.7,29.87,SSW,203,4.0,7.0,91,0.00,,,0.46,9,Wunderground v.1.15,2013-06-10 22:53:00,
2013-06-10 18:59:00,68.3,65.6,29.87,SSW,211,5.0,7.0,91,0.00,,,0.46,11,Wunderground v.1.15,2013-06-10 22:59:00,
2013-06-10 19:04:00,68.3,65.6,29.87,SW,229,4.0,6.0,91,0.00,,,0.46,12,Wunderground v.1.15,2013-06-10 23:04:00,
2013-06-10 19:10:00,68.1,65.7,29.87,SSW,208,3.0,3.0,92,0.00,,,0.46,19,Wunderground v.1.15,2013-06-10 23:10:00,
2013-06-10 19:16:00,68.0,65.6,29.87,SSW,195,3.0,6.0,92,0.00,,,0.46,12,Wunderground v.1.15,2013-06-10 23:16:00,
2013-06-10 19:22:00,67.8,65.4,29.87,SW,218,3.0,6.0,92,0.00,,,0.46,19,Wunderground v.1.15,2013-06-10 23:22:00,
2013-06-10 19:27:00,67.6,65.5,29.87,South,184,3.0,8.0,93,0.00,,,0.47,16,Wunderground v.1.15,2013-06-10 23:27:00,
2013-06-10 19:33:00,67.4,65.6,29.86,NNW,342,4.0,6.0,94,0.51,,,0.50,0,Wunderground v.1.15,2013-06-10 23:33:00,
2013-06-10 19:39:00,67.3,65.5,29.86,SSW,202,2.0,6.0,94,0.19,,,0.52,0,Wunderground v.1.15,2013-06-10 23:39:00,
2013-06-10 19:44:00,67.1,65.3,29.85,NE,55,3.0,6.0,94,0.07,,,0.52,0,Wunderground v.1.15,2013-06-10 23:44:00,
2013-06-10 19:50:00,66.9,65.4,29.85,SW,229,3.0,6.0,95,0.19,,,0.54,0,Wunderground v.1.15,2013-06-10 23:50:00,
2013-06-10 19:55:00,66.8,65.3,29.85,South,188,4.0,6.0,95,0.17,,,0.55,0,Wunderground v.1.15,2013-06-10 23:55:00,
2013-06-10 20:00:00,66.7,65.2,29.84,SSW,203,3.0,4.0,95,0.07,,,0.55,0,Wunderground v.1.15,2013-06-11 00:00:00,
2013-06-10 20:06:00,66.7,65.2,29.84,SSW,204,2.0,6.0,95,0.11,,,0.57,0,Wunderground v.1.15,2013-06-11 00:06:00,
2013-06-10 20:13:00,66.7,65.2,29.85,SW,217,3.0,4.0,95,0.15,,,0.59,0,Wunderground v.1.15,2013-06-11 00:13:00,
2013-06-10 20:18:00,66.6,65.1,29.85,SSW,212,3.0,4.0,95,0.17,,,0.60,0,Wunderground v.1.15,2013-06-11 00:18:00,
2013-06-10 20:24:00,66.6,65.4,29.84,NE,40,2.0,4.0,96,0.12,,,0.61,0,Wunderground v.1.15,2013-06-11 00:24:00,
2013-06-10 20:30:00,66.6,65.4,29.84,West,278,1.0,4.0,96,0.13,,,0.63,0,Wunderground v.1.15,2013-06-11 00:30:00,
2013-06-10 20:35:00,66.6,65.4,29.84,NW,316,1.0,4.0,96,0.15,,,0.64,0,Wunderground v.1.15,2013-06-11 00:35:00,
2013-06-10 20:41:00,66.5,65.3,29.84,WSW,237,1.0,2.0,96,0.07,,,0.64,0,Wunderground v.1.15,2013-06-11 00:41:00,
2013-06-10 20:47:00,66.5,65.3,29.84,SW,232,2.0,5.0,96,0.19,,,0.66,0,Wunderground v.1.15,2013-06-11 00:47:00,
2013-06-10 20:54:00,66.4,65.2,29.84,WSW,253,3.0,5.0,96,0.19,,,0.68,0,Wunderground v.1.15,2013-06-11 00:54:00,
2013-06-10 21:00:00,66.3,65.1,29.84,SW,221,3.0,8.0,96,0.26,,,0.70,0,Wunderground v.1.15,2013-06-11 01:00:00,
2013-06-10 21:06:00,66.2,65.0,29.84,SSW,211,3.0,8.0,96,0.23,,,0.72,0,Wunderground v.1.15,2013-06-11 01:06:00,
2013-06-10 21:12:00,66.2,65.0,29.85,SW,217,3.0,8.0,96,0.22,,,0.74,0,Wunderground v.1.15,2013-06-11 01:12:00,
2013-06-10 21:18:00,66.1,64.9,29.85,SSW,208,3.0,8.0,96,0.29,,,0.76,0,Wunderground v.1.15,2013-06-11 01:18:00,
2013-06-10 21:23:00,66.1,64.9,29.85,SSW,201,2.0,8.0,96,0.27,,,0.79,0,Wunderground v.1.15,2013-06-11 01:23:00,
2013-06-10 21:29:00,66.0,64.8,29.84,SSW,206,2.0,8.0,96,0.40,,,0.82,0,Wunderground v.1.15,2013-06-11 01:29:00,
2013-06-10 21:34:00,65.9,65.0,29.84,SSW,211,2.0,8.0,97,0.48,,,0.86,0,Wunderground v.1.15,2013-06-11 01:34:00,
2013-06-10 21:40:00,65.8,64.9,29.83,WSW,244,3.0,8.0,97,0.52,,,0.89,0,Wunderground v.1.15,2013-06-11 01:40:00,
2013-06-10 21:45:00,65.8,64.9,29.83,South,191,4.0,8.0,97,0.40,,,0.93,0,Wunderground v.1.15,2013-06-11 01:45:00,
2013-06-10 21:50:00,65.7,64.8,29.83,WSW,245,3.0,8.0,97,0.40,,,0.97,0,Wunderground v.1.15,2013-06-11 01:50:00,
2013-06-10 21:56:00,65.7,64.8,29.83,SSW,205,3.0,8.0,97,0.56,,,1.02,0,Wunderground v.1.15,2013-06-11 01:56:00,
2013-06-10 22:02:00,65.6,64.7,29.82,SW,222,3.0,7.0,97,0.49,,,1.06,0,Wunderground v.1.15,2013-06-11 02:02:00,
2013-06-10 22:08:00,65.7,64.8,29.83,WSW,238,3.0,7.0,97,0.42,,,1.10,0,Wunderground v.1.15,2013-06-11 02:08:00,
2013-06-10 22:14:00,65.7,64.8,29.83,WSW,254,3.0,7.0,97,0.46,,,1.13,0,Wunderground v.1.15,2013-06-11 02:14:00,
2013-06-10 22:19:00,65.7,64.8,29.83,WSW,246,3.0,7.0,97,0.32,,,1.16,0,Wunderground v.1.15,2013-06-11 02:19:00,
2013-06-10 22:25:00,65.6,64.7,29.83,SSW,213,3.0,7.0,97,0.45,,,1.20,0,Wunderground v.1.15,2013-06-11 02:25:00,
2013-06-10 22:31:00,65.6,64.7,29.83,SSW,205,3.0,7.0,97,0.39,,,1.24,0,Wunderground v.1.15,2013-06-11 02:31:00,
2013-06-10 22:36:00,65.6,64.7,29.83,NW,321,3.0,7.0,97,0.34,,,1.26,0,Wunderground v.1.15,2013-06-11 02:36:00,
2013-06-10 22:42:00,65.7,64.8,29.83,NNW,339,3.0,7.0,97,0.26,,,1.29,0,Wunderground v.1.15,2013-06-11 02:42:00,
2013-06-10 22:47:00,65.6,64.7,29.82,NNE,28,2.0,7.0,97,0.33,,,1.31,0,Wunderground v.1.15,2013-06-11 02:47:00,
2013-06-10 22:52:00,65.6,64.7,29.82,SW,218,2.0,7.0,97,0.27,,,1.34,0,Wunderground v.1.15,2013-06-11 02:52:00,
2013-06-10 22:58:00,65.7,64.8,29.82,SW,214,3.0,7.0,97,0.23,,,1.36,0,Wunderground v.1.15,2013-06-11 02:58:00,
2013-06-10 23:05:00,65.8,64.9,29.81,SSW,192,3.0,5.0,97,0.18,,,1.38,0,Wunderground v.1.15,2013-06-11 03:05:00,
2013-06-10 23:10:00,65.8,65.2,29.81,NNE,24,2.0,2.0,98,0.14,,,1.39,0,Wunderground v.1.15,2013-06-11 03:10:00,
2013-06-10 23:16:00,65.9,65.3,29.81,SSW,198,1.0,5.0,98,0.16,,,1.40,0,Wunderground v.1.15,2013-06-11 03:16:00,
2013-06-10 23:22:00,65.8,64.9,29.81,SSW,204,3.0,5.0,97,0.19,,,1.42,0,Wunderground v.1.15,2013-06-11 03:22:00,
2013-06-10 23:27:00,65.8,65.2,29.80,NW,312,2.0,5.0,98,0.27,,,1.44,0,Wunderground v.1.15,2013-06-11 03:27:00,
2013-06-10 23:33:00,65.9,65.3,29.80,NNE,15,1.0,5.0,98,0.24,,,1.47,0,Wunderground v.1.15,2013-06-11 03:33:00,
2013-06-10 23:39:00,65.9,65.3,29.80,NW,305,1.0,5.0,98,0.21,,,1.49,0,Wunderground v.1.15,2013-06-11 03:39:00,
2013-06-10 23:45:00,65.8,64.9,29.80,NNW,339,1.0,5.0,97,0.16,,,1.51,0,Wunderground v.1.15,2013-06-11 03:45:00,
2013-06-10 23:51:00,65.8,65.2,29.80,North,5,1.0,5.0,98,0.14,,,1.52,0,Wunderground v.1.15,2013-06-11 03:51:00,
2013-06-10 23:56:00,65.9,65.3,29.80,NNE,21,2.0,5.0,98,0.07,,,1.52,0,Wunderground v.1.15,2013-06-11 03:56:00,